Regional Weather Roundup
Issued by NWS

Home | Current Version | Previous Version | Text Only | Print | Product List | Glossary Off
Versions: 1 2 3 4 5 6 7 8 9 10 11 12 13 14 15 16 17 18 19 20 21 22 23 24 25 26 27 28 29 30 31 32 33 34 35 36 37 38 39 40 41 42 43 44 45 46 47 48 49 50

000
ASUS43 KDMX 250601
RWRIA

WEATHER ROUNDUP FOR IOWA
NATIONAL WEATHER SERVICE DES MOINES IA
100 AM CDT MON SEP 25 2017

NOTE: "FAIR" INDICATES FEW OR NO CLOUDS BELOW 12,000 FEET WITH NO
SIGNIFICANT WEATHER AND/OR OBSTRUCTIONS TO VISIBILITY.

* - THESE STATIONS ARE NOT NWS STATIONS...THUS NOT UNDER NWS
QUALITY CONTROL.  THEY ALSO DO NOT REPORT WEATHER SUCH
AS PRECIPITATION OR FOG.

IAZ001>003-012>014-020>022-031>034-043>046-250700-
   NORTHWEST IOWA

CITY           SKY/WX    TMP DP  RH WIND       PRES   REMARKS
CARROLL *      PTCLDY    66  66 100 NW6       29.92F
CHEROKEE *     TSTM      61  61 100 N6        29.96R
DENISON *      CLOUDY    64  63  94 NW5       29.96S
LE MARS *      CLOUDY    59  57  94 NW6       29.98R
ORANGE CITY *  CLOUDY    59  59 100 N6        29.98S
SHELDON *      CLOUDY    59  57  94 W8G16     29.99R
SIOUX CITY     RAIN      58  58 100 N9        29.97S
6HR MIN TEMP:  58; 6HR MAX TEMP:  65; 6HR PCP:  0.10;

SPENCER        LGT RAIN  63  61  93 NE10      29.95F
6HR MIN TEMP:  63; 6HR MAX TEMP:  70; 6HR PCP:  0.18;

STORM LAKE *   CLOUDY    64  63  94 NW12      29.97R
$$

IAZ055>058-069>071-079>083-090>094-250700-
   SOUTHWEST IOWA

CITY           SKY/WX    TMP DP  RH WIND       PRES   REMARKS
ATLANTIC *     PTCLDY    68  66  94 CALM      29.92S
AUDUBON *      PTCLDY    64  63  94 CALM      29.93F FOG
CLARINDA *     PTCLDY    70  64  83 SW5       29.93S
COUNCIL BLFS * CLOUDY    63  63 100 N9        29.94F
CRESTON *      PTCLDY    70  64  83 S7        29.94F
HARLAN  *      CLOUDY    66  66 100 NW5       29.97R
LAMONI         CLEAR     73  64  73 S8        29.94F
6HR MIN TEMP:  72; 6HR MAX TEMP:  83;

RED OAK *      PTCLDY    72  66  83 W8G15     29.92R
SHENANDOAH *   MOCLDY    73  66  78 W5        29.92R
$$

IAZ047>049-059>061-072>074-084-250700-
   CENTRAL IOWA

CITY           SKY/WX    TMP DP  RH WIND       PRES   REMARKS
AMES           PTCLDY    68  65  90 CALM      29.92S
6HR MIN TEMP:  68; 6HR MAX TEMP:  82;

ANKENY *       PTCLDY    70  63  78 CALM      29.93S
BOONE *        PTCLDY    70  63  78 CALM      29.92S
CHARITON *     CLEAR     68  63  83 S6        29.94S
DES MOINES     PTCLDY    73  63  70 S6        29.91S
6HR MIN TEMP:  73; 6HR MAX TEMP:  84;

GRINNELL*      CLEAR     68  61  78 SE5       29.95F
KNOXVILLE *    CLEAR     72  63  73 S5        29.92F
MARSHALLTOWN   CLEAR     66  63  90 SE6       29.92F
6HR MIN TEMP:  66; 6HR MAX TEMP:  82;

NEWTON *       CLEAR     68  63  83 SE8       29.94S
PELLA *        CLEAR     70  62  76 SE5       29.94S
PERRY *          N/A     68  65  90 CALM      29.91F
$$

IAZ004>006-015-016-023>025-035-036-250700-
   NORTH CENTRAL IOWA

CITY           SKY/WX    TMP DP  RH WIND       PRES   REMARKS
ALGONA *       LGT RAIN  68  68 100 NW7       29.96R
CLARION *      CLOUDY    70  66  88 E6        29.94S
ESTHERVILLE    CLOUDY    62  62 100 NE12      29.95S
6HR MIN TEMP:  62; 6HR MAX TEMP:  70; 6HR PCP:  0.01;

FORT DODGE *   PTCLDY    67  66  97 E5        29.93S
MASON CITY     MOCLDY    68  64  87 CALM      29.96S
6HR MIN TEMP:  66; 6HR MAX TEMP:  80;

FOREST CITY *  MOCLDY    68  66  94 CALM      29.95F
WEBSTER CITY * PTCLDY    68  64  88 E6        29.91F
IOWA FALLS *     N/A     67  63  85 CALM      29.94F
$$

IAZ007>011-017>019-026>030-037>042-050>054-066-250700-
   NORTHEAST IOWA

CITY           SKY/WX    TMP DP  RH WIND       PRES   REMARKS
CEDAR RAPIDS     N/A     69  62  78 SE6       29.94F
6HR MIN TEMP:  68; 6HR MAX TEMP:  82;

CHARLES CITY * CLEAR     68  63  83 CALM      29.95F
CLINTON *      CLEAR    N/A N/A N/A E5        29.97F
DECORAH *      CLEAR     72  63  73 S6        29.95S
DUBUQUE        CLEAR     69  62  78 S3        29.98S
6HR MIN TEMP:  67; 6HR MAX TEMP:  77;

MONTICELLO *   CLEAR     64  63  94 S5        29.95F
OELWEIN *      CLEAR     68  63  83 SE6       29.96S
WATERLOO       CLEAR     67  61  81 SE3       29.92F
6HR MIN TEMP:  67; 6HR MAX TEMP:  82;

$$

IAZ064-065-067-068-078-250700-
   EAST CENTRAL IOWA

CITY           SKY/WX    TMP DP  RH WIND       PRES   REMARKS
DAVENPORT      CLEAR     70  62  76 SE7       29.98F
6HR MIN TEMP:  69; 6HR MAX TEMP:  78;

IOWA CITY      CLEAR     69  63  81 CALM      29.96S
6HR MIN TEMP:  68; 6HR MAX TEMP:  84;

MUSCATINE *    CLEAR     68  64  88 CALM      29.95F
QUAD CITIES    CLEAR     70  61  73 E5        29.95F
6HR MIN TEMP:  69; 6HR MAX TEMP:  79;

$$

IAZ062-063-075>077-085>089-095>099-250700-
   SOUTHEAST IOWA

CITY           SKY/WX    TMP DP  RH WIND       PRES   REMARKS
BURLINGTON     CLEAR     71  63  75 CALM      29.95F
6HR MIN TEMP:  67; 6HR MAX TEMP:  81;

FAIRFIELD *    CLEAR     72  61  68 S3        29.94S
FORT MADISON * CLEAR     72  63  73 CALM      29.96F
KEOKUK *       CLEAR     72  64  78 SE3       29.94F
OSKALOOSA *      N/A     68  62  82 S5        29.95S
OTTUMWA        CLEAR     71  62  73 S7        29.94R
6HR MIN TEMP:  71; 6HR MAX TEMP:  81;

WASHINGTON *   CLEAR     68  63  83 SE7       29.96S
$$

ABBREVIATIONS USED IN REMARKS
   TC - TEMPERATURES IN CELSIUS
  WCI - WIND CHILL INDEX
   HX - HEAT INDEX
  VSB - VISIBILITY
$$




USA.gov is the U.S. government's official web portal to all federal, state and local government web resources and services.